Regional Weather Roundup
Issued by NWS Cleveland, OH

Home | Current Version | Previous Version | Graphics & Text | Print | Product List | Glossary On
Versions: 1 2 3 4 5 6 7 8 9 10 11 12 13 14 15 16 17 18 19 20 21 22 23 24 25 26 27 28 29 30 31 32 33 34 35 36 37 38 39 40 41 42 43 44 45 46 47 48 49 50
000
ASUS41 KCLE 020700
RWRCLE
OHIO REGIONAL WEATHER ROUNDUP
NATIONAL WEATHER SERVICE WILMINGTON, OH
300 AM EDT WED SEP 02 2015

NOTE: "FAIR" INDICATES FEW OR NO CLOUDS BELOW 12,000 FEET WITH NO
SIGNIFICANT WEATHER AND/OR OBSTRUCTIONS TO VISIBILITY.

OHZ001>008-015>018-024>027-034-035-043-044-020800-
   NORTHWEST OHIO

CITY           SKY/WX    TMP DP  RH WIND       PRES   REMARKS
DEFIANCE       CLEAR     70  66  87 S3        30.08F
FINDLAY        CLEAR     69  65  86 S5        30.08F
TOLEDO EXPRESS CLEAR     70  66  87 SW5       30.06F
TOLEDO EXEC    CLEAR     71  65  81 SW5       30.07F
LIMA           CLEAR     70  66  87 SW5       30.10F
$$

OHZ009>014-019>023-028>033-038-089-020800-
   NORTHEAST OHIO

CITY           SKY/WX    TMP DP  RH WIND       PRES   REMARKS
CLE-HOPKINS    MOCLDY    71  67  87 SW6       30.10S
CLE-LAKEFRONT  CLEAR     76  66  71 SW8       30.06F
CUY CO. ARPT   NOT AVBL
LORAIN-ELYRIA  PTCLDY    68  66  93 S3        30.09S FOG
ASHTABULA      CLEAR     67  65  93 CALM      30.09F
AKRON-CANTON   PTCLDY    70  66  87 SW6       30.11S FOG
WOOSTER        NOT AVBL
MANSFIELD      PTCLDY    69  66  90 SW5       30.11F
YOUNGSTOWN     MOCLDY    68  65  90 CALM      30.10S
$$

OHZ042-051>053-060>062-070>072-077>081-020800-
  SOUTHWEST OHIO

CITY           SKY/WX    TMP DP  RH WIND       PRES   REMARKS
CINC-COVINGTON CLEAR     70  67  90 CALM      30.11F
CINC-LUNKEN    CLEAR     67  67 100 CALM      30.11S FOG
HAMILTON       CLEAR     67  66  97 CALM      30.11F FOG
DAYTON         NOT AVBL
WRIGHT-PAT AFB NOT AVBL
DAYTON GENERAL CLEAR     68  64  87 CALM      30.10F
WILMINGTON     CLEAR     65  63  93 CALM      30.12F FOG
$$

OHZ036-037-039>041-045>050-054>059-063>069-073>076-082>088-020800-
  CENTRAL AND SOUTHEAST OHIO

CITY           SKY/WX    TMP DP  RH WIND       PRES   REMARKS
COLUMBUS       PTCLDY    70  67  90 CALM      30.09F
OSU AIRPORT    PTCLDY    69  66  90 CALM      30.10F
BOLTON FIELD   NOT AVBL
RICKENBACK AFB NOT AVBL
NEWARK         FOG       66  65  96 CALM      30.10F VSB 1/4
MARION         CLEAR     67  64  90 S5        30.11S FOG
LANCASTER      CLEAR     64  61  90 CALM      30.11F FOG
ZANESVILLE     PTCLDY    68  65  90 CALM      30.10F FOG
NEW PHILLY     PTCLDY    68  67  96 CALM      30.10F FOG
$$


USA.gov is the U.S. government's official web portal to all federal, state and local government web resources and services.